Regional Weather Roundup
Issued by NWS Bismarck, ND

Home | Current Version | Previous Version | Text Only | Print | Product List | Glossary On
Versions: 1 2 3 4 5 6 7 8 9 10 11 12 13 14 15 16 17 18 19 20 21 22 23 24 25 26 27 28 29 30 31 32 33 34 35 36 37 38 39 40 41 42 43 44 45 46 47 48 49 50
000
ASUS43 KBIS 211110
RWRBIS

NWR BROADCAST TEXT
NATIONAL WEATHER SERVICE BISMARCK ND
500 AM CST MON JAN 21 2019

NOTE: "FAIR" INDICATES FEW OR NO CLOUDS BELOW 12,000 FEET WITH NO
SIGNIFICANT WEATHER AND/OR OBSTRUCTIONS TO VISIBILITY.


CITY           SKY/WX    TMP DP  RH WIND       PRES   REMARKS
WILLISTON      CLOUDY    12   5  73 E3        29.79F
MINOT          CLOUDY     7   1  76 SE10      29.88F WCI  -8
MINOT AFB      CLOUDY     6   1  79 SE12      29.88F WCI -10
BISMARCK       LGT SNOW   8   5  87 SE13      29.91F FOG     WCI  -8
DICKINSON      LGT SNOW  10   5  80 SE8       29.73R WCI  -2
GARRISON         N/A      7   2  80 SE13      29.86F WCI  -9
HETTINGER ARPT CLOUDY     8   4  83 E10       29.72F WCI  -6
JAMESTOWN      LGT SNOW   2  -2  83 SE18      30.00F FOG     WCI -19
CARRINGTON     CLOUDY     3  -2  78 SE21G28   29.99F WCI -18
HAZEN          CLOUDY     9   5  85 SE7       29.88F WCI  -3
LINTON         LGT SNOW   7   1  78 SE13G20   29.91F WCI  -9
MANDAN         LGT SNOW   7   5  92 SE10      29.88F WCI  -8
OAKES          FOG        5   3  92 SE21G26   30.05F VSB 1/4 WCI -16
RUGBY          CLOUDY     1  -2  85 SE17G25   29.95F WCI -19
STANLEY        CLOUDY     3   1  92 SE8       29.80F WCI -10
TIOGA          CLOUDY     5   3  92 SE7       29.80S WCI  -7
WATFORD CITY   FLURRIES  10   7  85 E9        29.78F WCI  -2
$$

CITY           SKY/WX    TMP DP  RH WIND       PRES   REMARKS
GRAND FORKS    CLOUDY     3  -6  66 S22G38    30.16F WCI -19
GRAND FORKS AF NOT AVBL
DEVILS LAKE    CLOUDY     1  -4  79 S17       30.02F WCI -19
FARGO          CLOUDY     4  -6  63 SE18G33   30.17F WCI -16
CANDO          CLOUDY     1  -4  78 SE17      30.01F WCI -19
CAVALIER       CLOUDY     3  -6  66 S20G31    30.11F WCI -18
GRAFTON        CLOUDY     5  -4  66 S26G33    30.17F WCI -18
GWINNER        HAZE       1  -4  78 SE22      30.09F VSB 3/4 WCI -21
LANGDON        CLOUDY     1  -2  85 S22       30.01F WCI -21
ROLLA          CLOUDY     0  -4  85 S12       29.95F FOG     WCI -18
WALHALLA         N/A      3  -6  66 S16G25    30.10F WCI -16
$$

CITY           SKY/WX    TMP DP  RH WIND       PRES   REMARKS
ABERDEEN       LGT SNOW   8   4  83 SE20      30.04S FOG     WCI -11
MOBRIDGE       CLOUDY    14   7  73 SE15      29.83F WCI  -1
BUFFALO          N/A     12   7  80 SE8       29.63F WCI   0
RAPID CITY     FOG       21  18  88 N9        29.60F VSB 3/4 WCI  11
GLASGOW        CLOUDY    17  13  84 SE7       29.71F WCI   8
SIDNEY         LGT SNOW  15  12  88 E6        29.76F FOG     WCI   6
WOLF POINT     CLOUDY    14  10  84 E12       29.78R WCI   0
GLENDIVE       LGT SNOW  16  14  92 E9        29.70R FOG     WCI   4
MILES CITY     CLOUDY    22  20  92 NE13      29.61F WCI  10
BAKER          LGT SNOW  10   8  92 E18       29.63F FOG     WCI  -8
$$

CITY           SKY/WX    TMP DP  RH WIND       PRES   REMARKS
BILLINGS       FLURRIES  30  27  88 NW9       29.56S
GREAT FALLS    CLOUDY    26  26 100 NW6       29.65R WCI  19
REGINA         CRYSTALS   5   1  85 SE12      29.82R WCI -11
ESTEVAN        FLURRIES   7   3  85 E7        29.84S WCI  -5
$$




USA.gov is the U.S. government's official web portal to all federal, state and local government web resources and services.